Find Starlink 33918

NORAD ID: 63796 Int'l Des: 2025-091 Owner: SPXS Country: US Constellation: starlink operational
LEOCIRCULAR

实时位置

正在加载3D地球...

关于 Starlink 33918

正在加载描述...

即将过境

Passes for default location (London). Set your location on the main map for personalized predictions.

高度历史

Loading altitude history...

两行轨道根数

1 63796U 25091X 26105.32974373 .00010222 00000-0 38022-3 0 9995
2 63796 42.9989 205.7931 0000984 279.1909 80.8832 15.27599675 54553
Epoch: Apr 15, 2026 • Age: 27 hours

当前状态

高度 482.4 km
速度 7.63 km/s
星下点 15.89°N, 12.02°W
发射日期 May 2, 2025
运行时间 0.9 years
类型 internet

技术详情

分类 Payload
质量 575.00 kg
干质量 530.00 kg
总质量 575.00 kg
长度 0.30 m
直径 4.10 m
跨度 29.00 m
形状 Box + pan
制造商 SPXS
平台类型 Starlink V2MO
阶段状态 In Orbit
所有者/国家 SPXS/US

Most Searched